Weather Service Report


995 
ASUS45 KCYS 110010
RWRWY 

WYOMING REGIONAL WEATHER ROUNDUP
NATIONAL WEATHER SERVICE CHEYENNE WY
500 PM MST WED FEB 10 2016

NOTE:  "FAIR" INDICATES FEW OR NO CLOUDS BELOW 12,000 FEET
WITH NO SIGNIFICANT WEATHER AND/OR OBSTRUCTIONS TO VISIBILITY.

WYZ001-110100-
YELLOWSTONE NATIONAL PARK
  
CITY           SKY/WX    TMP DP  RH WIND       PRES   REMARKS
LK YELLOWSTONE   N/A     35  21  56 CALM      30.35R                  
6HR MIN TEMP:  21; 6HR MAX TEMP:  42; 6HR PCP:  0.01;                

W YELLOWSTONE  NOT AVBL                                               

$$
WYZ002>013-054>058-071-098>099-110100-
NORTHERN WYOMING
  
CITY           SKY/WX    TMP DP  RH WIND       PRES   REMARKS
JACKSON        CLEAR     25  19  80 CALM      30.34F                  
CODY           FAIR      57  18  21 W13       30.14R                  
GREYBULL       FAIR      49  27  42 S3        30.12S                  
6HR MIN TEMP:  34; 6HR MAX TEMP:  50;                                

WORLAND        FAIR      41  29  62 CALM      30.14R                  
6HR MIN TEMP:  34; 6HR MAX TEMP:  48;                                

SHERIDAN       FAIR      50  26  39 N7        30.08R                  
6HR MIN TEMP:  50; 6HR MAX TEMP:  61;                                

BUFFALO        FAIR      50  25  37 S5        30.11R                  
6HR MIN TEMP:  48; 6HR MAX TEMP:  57;                                

GILLETTE       FAIR      48  26  42 NW10      30.07R                  
6HR MIN TEMP:  48; 6HR MAX TEMP:  57;                                

HULETT         FAIR      48  27  43 NW3       30.07R                  
NEWCASTLE      FAIR      52  21  30 NW13G20   30.06R                  

$$
WYZ014>020-022>026-101>103-110100-
CENTRAL WYOMING
  
CITY           SKY/WX    TMP DP  RH WIND       PRES   REMARKS
BIG PINEY      FAIR      39  23  52 W6        30.32R WCI  35          
6HR MIN TEMP:  26; 6HR MAX TEMP:  44;                                

PINEDALE         N/A     39  23  52 NW14      30.31S WCI  31          
DUBOIS         FAIR      43  14  31 NW12      30.27R                  
LANDER         FAIR      44  22  41 NE3       30.16R                  
6HR MIN TEMP:  38; 6HR MAX TEMP:  52;                                

RIVERTON       FAIR      39  21  48 NW3       30.18R                  
6HR MIN TEMP:  27; 6HR MAX TEMP:  39;                                

CASPER         FAIR      42  22  44 SW18G25   30.14F                  
6HR MIN TEMP:  38; 6HR MAX TEMP:  43;                                

DOUGLAS        FAIR      44  26  49 N9          N/A                   

$$
WYZ021-027>030-104>119-110100-
SOUTHERN WYOMING
  
CITY           SKY/WX    TMP DP  RH WIND       PRES   REMARKS
EVANSTON       FAIR      38  21  50 SW12      30.37S WCI  30          
6HR MIN TEMP:  28; 6HR MAX TEMP:  39;                                

KEMMERER       FAIR      32  21  64 W7        30.36S WCI  26          
FORT BRIDGER   CLEAR     41  23  48 W16G22    30.38S                  
ROCK SPRINGS   FAIR      39  21  48 W23       30.29R WCI  28          
6HR MIN TEMP:  36; 6HR MAX TEMP:  45;                                

DIXON          FAIR      29  19  64 CALM      30.35S                  
RAWLINS        FAIR      35  18  49 W14       30.26R WCI  26          
6HR MIN TEMP:  34; 6HR MAX TEMP:  41;                                

SARATOGA       FAIR      37  21  52 W16       30.26R WCI  28          
LARAMIE        FAIR      40  19  43 W13       30.20R WCI  32          
6HR MIN TEMP:  40; 6HR MAX TEMP:  48;                                

CHEYENNE       FAIR      47  19  33 NW18G26   30.14R                  
6HR MIN TEMP:  47; 6HR MAX TEMP:  58;                                

TORRINGTON     FAIR      54  20  26 NW15      30.07R                  
6HR MIN TEMP:  54; 6HR MAX TEMP:  63;                                

PINE BLUFFS    FAIR      45  23  42 NW14      30.12R                  

$$
  

Return to Home page


Western Regional Climate Center, wrcc@dri.edu